Wind_Speed
21 21 21 21 21 21 20 18 19 18 17 18 16 15 21 20 24 7 5 3 2 2 2 6 5 7 5 4 2 2 5 8 6 6 1 3 3 3 0 4 3 4 2 4 15
23 22 23 23 22 21 21 21 20 19 17 18 17 15 18 21 16 11 5 6 3 2 3 7 6 8 4 5 4 6 4 6 2 3 2 2 4 3 5 7 7 7 7 6 19
21 23 24 23 24 25 23 22 21 20 19 17 17 15 15 16 11 2 7 4 4 2 2 2 5 4 5 4 6 5 6 4 4 5 3 4 5 4 6 11 11 9 8 11 19
21 22 22 23 24 24 23 24 21 20 18 16 14 11 13 6 7 3 5 4 5 4 5 4 4 4 4 6 5 5 8 7 1 1 2 5 3 7 12 15 3 5 3 13 17
21 21 21 22 23 24 24 22 22 20 16 13 13 10 4 6 8 5 5 5 6 4 4 4 5 3 5 3 5 9 7 4 7 5 7 6 13 12 18 12 9 4 7 11 13
21 20 22 22 24 24 24 24 22 20 18 11 8 7 3 13 2 5 6 4 4 5 3 4 3 2 2 4 7 1 6 9 8 11 8 8 15 3 9 1 9 11 11 10 12
23 22 23 24 25 26 26 24 24 21 17 10 5 3 6 14 4 7 4 3 4 3 2 2 3 5 4 4 2 2 8 10 12 7 6 3 10 14 13 5 8 9 8 9 10
23 22 23 25 26 28 27 27 24 17 12 7 3 3 6 3 4 7 6 4 5 3 3 4 2 1 3 1 2 5 4 6 5 5 3 4 10 4 2 5 7 7 7 8 11
24 24 25 26 26 29 30 24 17 9 5 3 5 3 5 3 3 6 6 5 6 6 5 5 1 1 4 6 5 5 7 7 4 4 3 9 9 2 3 5 8 7 8 9 9
25 26 24 28 28 29 31 23 5 4 1 4 2 4 6 3 4 4 3 8 2 7 4 3 3 6 5 8 5 4 6 6 9 3 6 11 19 18 17 14 14 13 10 9 4
26 28 27 26 27 30 26 9 3 5 6 7 4 2 2 5 6 4 4 6 5 4 6 4 7 9 8 10 5 3 6 11 10 4 6 15 17 17 15 13 13 13 9 4 4
27 26 27 24 25 26 14 6 3 2 9 11 14 10 6 2 4 7 7 7 6 9 5 5 10 3 2 4 7 8 9 11 9 2 4 12 20 16 6 2 4 6 6 4 3
27 28 26 23 25 10 8 7 6 4 6 5 6 7 6 10 6 9 10 4 7 7 9 10 3 6 3 5 6 9 11 8 7 6 8 11 11 1 2 2 3 5 6 3 1
31 27 25 19 16 5 7 5 4 2 5 6 8 6 7 6 5 3 7 4 5 6 4 6 1 4 4 5 8 7 3 4 4 5 5 4 6 4 2 1 3 4 5 1 2
28 23 22 14 10 10 7 5 2 3 5 9 6 5 6 6 9 4 2 4 7 5 4 2 3 4 6 3 8 2 2 2 3 5 6 5 4 2 3 4 6 7 4 2 3
26 21 17 12 9 18 13 5 4 4 8 6 6 8 9 5 5 5 4 2 1 3 4 7 1 3 3 2 2 7 2 2 2 2 4 4 4 3 2 2 4 5 3 5 7
30 23 17 13 8 6 6 3 5 7 2 3 4 7 10 7 6 6 5 6 4 3 3 4 4 2 2 4 4 5 4 3 4 3 2 3 5 6 3 5 3 2 5 8 7
28 26 17 17 15 6 5 3 9 4 3 1 1 6 7 6 3 5 6 5 2 1 2 4 4 5 3 3 1 5 3 3 4 2 2 4 6 1 0 2 1 3 5 8 10
34 17 9 12 17 10 3 7 3 3 2 1 2 3 3 3 3 5 6 4 2 3 4 4 3 3 1 0 2 4 4 2 1 1 3 3 4 3 4 7 4 4 6 8 10
23 8 11 12 11 6 3 6 4 2 5 3 4 2 6 6 5 5 5 2 3 1 3 3 2 1 3 3 3 2 5 2 1 3 4 4 5 3 6 4 4 8 9 10 11
6 4 6 3 8 3 3 6 5 5 3 4 5 4 2 3 3 3 4 3 2 3 1 3 2 3 3 6 4 4 3 2 2 2 3 4 2 0 4 1 7 9 8 9 11
5 3 7 7 3 1 4 3 1 6 1 1 1 2 4 5 4 3 4 1 3 4 3 2 1 3 0 2 2 2 3 6 4 4 2 3 5 1 1 3 5 8 8 8 9
3 3 5 1 3 4 2 4 4 3 3 3 2 3 1 4 3 3 6 3 5 3 4 5 2 3 2 2 2 4 6 5 2 1 8 3 2 2 3 5 3 7 8 9 10
3 4 2 2 1 3 3 3 3 2 2 2 3 3 4 3 2 4 4 3 4 0 4 3 2 5 6 3 3 4 7 11 9 5 5 11 11 4 8 7 4 5 7 9 8
1 2 1 4 1 5 2 1 2 3 2 1 2 3 4 3 3 4 3 5 2 1 2 1 4 3 10 13 12 14 12 12 16 17 9 1 7 5 7 7 4 5 7 8 9
2 3 2 4 6 4 5 3 6 2 4 3 3 7 3 2 1 5 4 3 2 2 3 0 2 2 7 10 10 12 13 14 18 20 16 18 22 13 1 1 3 4 6 8 10
2 2 2 4 2 3 3 5 3 7 1 3 4 4 5 3 5 6 5 4 3 3 5 3 2 2 3 1 7 8 7 9 7 7 13 14 10 0 1 3 3 5 6 8 10
Wind_Direction
4 1 360 356 350 347 343 336 322 313 321 301 303 310 320 326 322 299 232 171 182 242 244 155 142 151 146 141 148 183 235 241 238 212 196 146 200 161 107 236 202 197 268 90 156
359 358 356 354 351 348 344 336 327 312 306 311 301 299 310 320 309 273 191 149 165 243 195 191 162 162 164 159 170 214 233 245 250 217 239 177 243 199 212 214 220 217 195 154 165
356 353 351 351 350 346 342 340 334 323 313 313 313 297 307 319 289 189 168 166 172 160 181 172 146 187 185 176 182 182 243 229 227 234 260 260 248 233 245 256 242 242 212 180 184
350 347 347 347 344 343 340 335 335 327 316 313 318 311 306 305 303 147 176 184 189 167 158 170 186 187 211 208 179 233 246 237 262 144 222 248 286 251 240 256 291 266 211 181 193
343 341 342 343 340 340 337 332 328 323 316 298 306 308 301 247 267 190 200 209 182 176 179 200 221 211 224 204 195 237 256 244 252 257 257 265 257 264 262 258 252 222 199 204 207
337 336 336 339 339 339 334 327 323 317 312 290 286 300 254 270 225 193 188 205 185 174 160 189 228 215 233 232 224 340 271 274 269 260 251 247 265 241 253 293 239 233 234 224 216
329 332 333 333 335 337 335 326 320 311 299 291 272 251 246 254 236 203 200 176 171 200 180 156 176 213 173 211 216 288 287 275 253 259 232 222 255 233 264 243 252 238 237 226 215
326 327 329 329 331 332 334 326 324 319 290 261 221 218 255 256 232 234 192 156 138 106 103 115 127 133 243 118 203 248 253 273 128 165 151 211 262 177 177 220 237 229 223 218 207
328 327 325 326 328 331 331 323 323 322 302 185 166 222 253 289 222 221 198 180 135 106 88 102 113 234 179 222 226 210 260 237 260 205 190 219 275 219 186 216 245 253 249 217 195
323 324 323 321 327 331 329 321 302 260 198 161 172 219 231 151 143 145 155 157 146 135 138 203 194 217 205 207 236 205 225 233 255 156 224 257 263 272 274 266 266 268 252 220 152
316 318 325 319 321 330 331 328 229 211 216 233 227 257 160 128 143 160 158 150 134 213 219 183 232 217 208 219 276 262 255 269 272 264 288 270 275 277 281 275 269 264 244 164 183
314 310 319 319 315 326 322 283 331 11 289 248 245 247 250 179 197 172 162 197 197 221 179 200 236 266 197 203 221 240 268 270 283 265 258 287 284 294 304 299 312 294 254 158 164
330 326 324 321 314 308 324 282 307 317 257 251 210 207 206 182 214 179 178 183 226 212 213 255 76 120 167 182 214 238 252 274 281 306 253 294 274 218 147 113 67 88 133 170 133
319 312 321 318 308 296 283 239 297 256 275 188 198 178 145 160 178 130 175 205 200 239 207 258 93 236 212 233 218 247 212 245 252 296 284 357 290 220 191 170 191 165 173 187 337
316 307 312 301 284 287 285 270 217 178 271 138 150 131 143 182 131 149 126 186 226 188 206 72 194 207 235 256 192 2 141 233 253 264 303 179 239 169 174 224 200 206 205 298 319
329 314 306 286 241 267 268 276 171 195 243 173 141 167 153 166 142 126 164 136 59 185 230 269 267 255 272 96 170 135 179 197 189 212 239 143 233 188 170 189 195 203 229 322 326
325 314 295 264 257 243 251 194 210 216 79 175 191 176 182 154 147 177 159 171 209 191 206 188 199 148 207 195 166 206 224 236 218 205 286 162 230 291 192 209 224 214 295 320 325
327 321 290 255 262 260 246 234 215 221 242 54 107 144 186 144 145 156 166 186 156 147 170 247 197 186 160 255 233 185 235 279 280 272 358 169 237 154 237 229 197 271 295 315 331
329 330 281 260 255 252 206 229 275 219 159 148 56 184 159 158 164 181 207 175 124 178 216 188 203 122 66 151 287 148 209 20 293 171 265 232 230 201 220 238 237 319 339 333 330
328 308 276 278 235 202 206 236 263 296 238 157 172 263 201 166 189 192 181 103 140 176 260 173 245 191 122 169 78 279 136 163 164 252 250 226 259 251 194 213 275 328 333 330 329
338 314 310 314 187 238 221 213 265 223 280 267 173 153 168 148 194 181 150 127 148 140 93 148 259 138 201 203 177 158 188 148 328 236 278 293 178 131 164 244 310 318 313 322 321
342 286 324 209 207 228 237 230 293 224 134 273 295 115 157 165 170 181 161 82 157 161 141 95 143 251 10 73 345 285 212 185 232 173 234 297 274 147 210 313 302 292 311 317 322
314 277 287 255 212 205 255 256 263 253 196 195 136 74 320 148 166 194 129 118 159 177 166 166 198 273 184 121 187 229 199 201 104 305 219 232 263 176 250 309 269 285 322 330 333
315 308 288 248 261 309 190 253 249 32 151 72 93 91 158 146 90 162 129 168 183 166 170 160 201 251 265 31 103 201 204 203 205 222 239 234 272 224 256 316 314 317 338 331 334
334 303 224 296 272 247 295 239 223 215 48 91 172 230 161 150 141 175 127 134 149 27 68 247 257 213 268 275 257 257 245 216 215 232 238 298 251 274 298 313 299 316 327 340 345
287 298 303 279 299 263 244 218 237 175 198 193 228 174 164 156 156 180 137 158 205 104 190 20 268 288 288 273 260 256 254 248 230 242 252 260 275 291 40 242 277 340 344 346 341
235 297 304 277 277 265 244 246 229 148 202 16 171 134 139 92 87 81 80 86 120 171 192 206 257 263 274 295 308 263 241 229 237 231 236 244 268 107 245 256 333 352 343 338 332
Height
823 820 816 812 810 806 802 799 798 797 792 791 789 787 786 783 777 774 769 770 772 771 771 770 770 770 770 771 772 772 769 761 757 760 751 759 759 763 764 761 766 765 764 771 773
825 821 816 812 808 804 800 798 795 794 791 789 787 785 783 781 777 771 768 766 768 771 772 770 768 768 767 769 770 767 764 753 754 755 757 759 761 759 762 759 761 762 767 772 774
823 820 816 811 807 804 800 795 792 790 789 786 784 783 782 779 774 765 767 767 766 768 771 770 769 767 766 767 767 767 759 757 757 758 761 761 762 760 760 756 753 754 757 768 772
823 821 815 810 807 802 799 796 789 787 786 785 782 780 780 779 772 767 769 768 767 766 769 770 768 765 764 765 765 768 759 761 759 762 763 762 760 760 758 750 753 754 758 763 766
823 820 814 809 805 800 797 793 790 787 782 780 780 779 779 776 767 765 768 769 767 768 765 766 765 763 763 763 767 765 759 762 760 762 762 762 760 760 751 751 753 758 760 761 763
821 817 813 805 802 797 794 791 787 784 781 777 777 779 778 774 765 766 766 768 767 767 766 766 764 764 763 764 765 764 764 760 759 758 760 761 754 762 745 751 752 755 755 758 760
821 815 811 806 800 795 790 787 784 781 779 774 775 775 777 766 765 765 766 765 766 767 766 766 768 766 764 764 766 765 763 754 751 755 757 760 754 753 745 751 751 751 753 756 759
818 810 807 803 798 794 786 784 779 776 776 773 771 774 767 764 763 765 764 766 765 766 767 768 769 768 766 768 765 763 763 751 752 757 759 760 739 741 748 750 748 748 751 755 758
812 808 805 800 794 790 784 779 775 775 773 772 771 771 763 762 762 763 764 763 765 766 768 770 770 768 769 762 757 759 743 749 747 755 757 757 740 739 747 749 746 746 747 752 756
810 805 801 798 791 786 781 775 771 773 772 771 771 773 761 755 759 761 763 764 764 766 768 770 768 762 763 757 746 740 751 751 747 752 757 750 743 738 737 743 745 744 746 751 760
806 803 797 794 790 785 779 775 771 771 771 756 754 753 754 756 757 760 762 763 764 765 760 766 761 751 743 748 751 753 751 748 742 752 758 745 739 736 735 739 745 742 744 759 765
801 799 793 791 787 782 780 777 772 773 762 756 754 754 754 753 754 756 761 762 761 756 763 764 750 745 753 756 757 754 751 744 744 757 760 743 735 733 742 749 756 757 749 761 762
797 795 790 787 784 779 777 777 776 775 763 749 748 745 748 751 748 750 757 758 757 756 755 748 750 755 753 755 755 750 749 745 751 752 751 750 721 744 746 750 753 757 761 766 765
794 791 787 783 783 777 773 771 774 777 761 737 741 740 744 746 749 753 754 756 757 751 755 751 754 754 753 751 751 749 751 757 758 753 743 751 729 720 737 753 748 753 755 760 764
788 786 783 781 780 778 774 771 770 774 757 731 737 740 740 740 745 751 754 755 749 750 754 743 751 753 750 747 750 748 760 759 759 757 762 748 758 711 733 740 738 746 750 757 762
785 781 779 778 772 773 771 769 770 766 754 732 733 734 735 740 743 750 751 754 754 753 754 749 757 754 750 759 759 764 763 763 763 761 754 758 751 700 721 739 737 747 751 755 760
783 778 775 773 769 765 769 768 762 750 731 731 730 730 727 735 741 742 755 751 747 754 753 748 749 757 759 755 762 760 757 737 738 743 721 762 751 715 734 740 749 756 756 758 761
778 774 769 768 767 764 767 765 746 731 731 731 732 731 727 733 739 743 744 744 757 754 755 741 738 753 758 752 747 753 752 736 727 719 718 759 735 710 737 745 757 762 762 758 758
773 767 764 761 764 764 764 759 740 727 733 732 735 733 734 737 738 741 741 742 753 761 753 759 742 759 761 760 759 757 756 761 758 772 747 712 717 740 743 741 747 749 759 761 760
773 767 761 759 760 763 759 754 739 738 731 733 736 733 731 736 738 742 744 756 762 768 767 765 755 759 763 763 764 757 758 758 758 743 731 706 712 697 732 735 738 747 761 763 761
772 768 760 758 761 760 752 749 740 739 743 734 732 737 734 740 744 745 747 761 766 770 765 768 768 759 763 756 746 762 761 764 767 762 739 716 695 739 739 747 752 757 763 764 761
775 768 761 759 756 756 751 745 742 735 742 741 738 735 738 744 744 748 747 758 768 764 765 769 768 757 746 765 764 758 752 759 750 756 762 758 714 746 750 756 764 763 764 763 761
776 770 762 762 749 751 748 745 742 737 743 742 741 740 745 743 750 747 753 768 770 767 768 769 770 748 757 767 764 760 758 761 773 771 749 740 703 745 751 752 760 765 763 761 759
779 769 762 760 760 753 749 746 743 744 743 742 745 745 747 747 752 753 757 769 770 770 768 768 772 757 728 748 756 765 761 761 765 751 731 730 713 736 736 742 754 758 762 761 757
781 773 771 760 754 755 754 751 744 745 747 745 750 749 748 752 755 755 756 767 771 770 772 773 767 773 757 752 754 756 757 762 761 744 744 725 737 735 739 750 759 766 762 758 754
781 777 772 764 762 757 751 747 743 752 751 748 750 745 753 750 750 761 760 760 762 775 774 780 759 768 761 747 749 752 746 748 754 747 745 743 734 732 751 759 757 759 761 758 755
778 777 777 760 760 759 747 741 743 748 752 749 747 752 754 759 760 761 765 767 769 772 774 774 768 767 747 750 756 742 744 741 738 742 739 738 729 745 748 750 754 759 762 759 756